JAL3304 RJCB-RJGG

Flight info

Callsign JAL3304
Flight time 1h 51m
Altitude 36000
Route OBE MKE Y14 ARIKA Y12 MBE Y121 SWING
Aircraft B738/M-SDE2E3FGHIRWXY/LB1

Departure

Time 2026-05-08 08:20
Airport Tokachi-Obihiro Airport (RJCB)

Arrival

Time 2026-05-08 10:12
Airport Chubu Centrair International Airport (RJGG)
Time Latitude Longitude Altitude Speed Heading
2026-05-08 08:10 42.73353 143.21292 499 ft 0 kts 249°
2026-05-08 08:11 42.73354 143.21293 499 ft 2 kts 249°
2026-05-08 08:11 42.73358 143.21311 500 ft 2 kts 249°
2026-05-08 08:12 42.73363 143.21329 500 ft 2 kts 249°
2026-05-08 08:12 42.73368 143.21347 472 ft 2 kts 249°
2026-05-08 08:12 42.73373 143.21364 472 ft 2 kts 249°
2026-05-08 08:12 42.73378 143.21382 500 ft 2 kts 250°
2026-05-08 08:13 42.73383 143.21400 513 ft 2 kts 250°
2026-05-08 08:13 42.73387 143.21418 507 ft 2 kts 251°
2026-05-08 08:13 42.73392 143.21436 503 ft 2 kts 254°
2026-05-08 08:13 42.73395 143.21453 499 ft 2 kts 260°
2026-05-08 08:14 42.73396 143.21469 499 ft 2 kts 277°
2026-05-08 08:14 42.73394 143.21481 490 ft 1 kts 313°
2026-05-08 08:14 42.73390 143.21487 499 ft 1 kts 330°
2026-05-08 08:14 42.73385 143.21491 499 ft 1 kts 336°
2026-05-08 08:15 42.73382 143.21492 499 ft 0 kts 338°
2026-05-08 08:16 42.73391 143.21487 489 ft 3 kts 338°
2026-05-08 08:17 42.73419 143.21471 493 ft 6 kts 337°
2026-05-08 08:17 42.73472 143.21445 488 ft 11 kts 340°
2026-05-08 08:17 42.73559 143.21402 488 ft 16 kts 339°
2026-05-08 08:17 42.73674 143.21343 480 ft 18 kts 339°
2026-05-08 08:18 42.73802 143.21277 481 ft 21 kts 339°
2026-05-08 08:18 42.73952 143.21198 474 ft 24 kts 340°
2026-05-08 08:18 42.74112 143.21116 475 ft 25 kts 339°
2026-05-08 08:18 42.74270 143.21036 478 ft 23 kts 341°
2026-05-08 08:19 42.74375 143.21100 477 ft 14 kts 69°
2026-05-08 08:19 42.74386 143.21207 475 ft 9 kts 128°
2026-05-08 08:19 42.74356 143.21230 478 ft 0 kts 159°
2026-05-08 08:19 42.74337 143.21239 478 ft 13 kts 159°
2026-05-08 08:20 42.74015 143.21405 475 ft 85 kts 159°
2026-05-08 08:20 42.73267 143.21786 499 ft 142 kts 160°
2026-05-08 08:20 42.72230 143.22303 820 ft 167 kts 160°
2026-05-08 08:20 42.71166 143.22931 1643 ft 170 kts 143°
2026-05-08 08:21 42.70385 143.24150 2382 ft 173 kts 119°
2026-05-08 08:21 42.69820 143.25629 3049 ft 186 kts 120°
2026-05-08 08:21 42.69418 143.27435 3246 ft 219 kts 88°
2026-05-08 08:21 42.70030 143.29431 3498 ft 246 kts 52°
2026-05-08 08:22 42.71466 143.30878 3824 ft 271 kts 22°
2026-05-08 08:22 42.73353 143.31234 4492 ft 280 kts 349°
2026-05-08 08:22 42.75095 143.30164 5337 ft 276 kts 314°
2026-05-08 08:22 42.76061 143.28020 6262 ft 263 kts 278°
2026-05-08 08:23 42.75944 143.25626 7137 ft 253 kts 244°
2026-05-08 08:23 42.74953 143.23676 8047 ft 251 kts 231°
2026-05-08 08:23 42.73869 143.21814 8909 ft 252 kts 229°
2026-05-08 08:23 42.72886 143.19844 9745 ft 256 kts 250°
2026-05-08 08:24 42.72523 143.17456 10470 ft 263 kts 257°
2026-05-08 08:24 42.72223 143.14892 10693 ft 287 kts 257°
2026-05-08 08:24 42.71895 143.12104 10884 ft 310 kts 258°
2026-05-08 08:24 42.71530 143.09110 11049 ft 331 kts 257°
2026-05-08 08:25 42.71130 143.05946 11337 ft 347 kts 257°
2026-05-08 08:25 42.70707 143.02685 11953 ft 352 kts 257°
2026-05-08 08:25 42.70273 142.99404 12695 ft 353 kts 257°
2026-05-08 08:25 42.69829 142.96107 13408 ft 356 kts 257°
2026-05-08 08:26 42.69378 142.92798 14022 ft 358 kts 256°
2026-05-08 08:26 42.68920 142.89462 14637 ft 359 kts 256°
2026-05-08 08:26 42.68456 142.86109 15177 ft 362 kts 257°
2026-05-08 08:26 42.67987 142.82720 15712 ft 367 kts 256°
2026-05-08 08:27 42.67509 142.79314 16474 ft 366 kts 256°
2026-05-08 08:27 42.67033 142.75912 17185 ft 368 kts 256°
2026-05-08 08:27 42.66551 142.72478 17713 ft 372 kts 256°
2026-05-08 08:27 42.66065 142.69007 18201 ft 376 kts 256°
2026-05-08 08:28 42.65578 142.65538 18800 ft 374 kts 256°
2026-05-08 08:28 42.65082 142.62043 19337 ft 377 kts 256°
2026-05-08 08:28 42.64586 142.58540 19912 ft 378 kts 255°
2026-05-08 08:28 42.64090 142.55029 20398 ft 380 kts 256°
2026-05-08 08:29 42.63598 142.51547 20763 ft 381 kts 256°
2026-05-08 08:29 42.63089 142.47963 21237 ft 383 kts 255°
2026-05-08 08:29 42.62583 142.44409 21768 ft 384 kts 255°
2026-05-08 08:29 42.62081 142.40897 22242 ft 384 kts 254°
2026-05-08 08:30 42.61568 142.37327 22688 ft 386 kts 254°
2026-05-08 08:30 42.61052 142.33742 23109 ft 388 kts 254°
2026-05-08 08:30 42.60011 142.26529 23856 ft 390 kts 253°
2026-05-08 08:31 42.59481 142.22861 24227 ft 391 kts 253°
2026-05-08 08:31 42.58962 142.19282 24560 ft 393 kts 253°
2026-05-08 08:31 42.58434 142.15646 24910 ft 393 kts 253°
2026-05-08 08:31 42.57904 142.12003 25238 ft 394 kts 253°
2026-05-08 08:32 42.57371 142.08349 25509 ft 396 kts 253°
2026-05-08 08:32 42.56833 142.04676 25816 ft 398 kts 253°
2026-05-08 08:32 42.56227 142.01030 26119 ft 395 kts 248°
2026-05-08 08:32 42.55218 141.97593 26418 ft 391 kts 240°
2026-05-08 08:33 42.53958 141.94336 26724 ft 389 kts 237°
2026-05-08 08:33 42.52490 141.91261 27016 ft 388 kts 231°
2026-05-08 08:33 42.50727 141.88522 27308 ft 386 kts 226°
2026-05-08 08:33 42.48905 141.85874 27719 ft 382 kts 226°
2026-05-08 08:34 42.47097 141.83260 28181 ft 378 kts 226°
2026-05-08 08:34 42.45310 141.80675 28635 ft 374 kts 226°
2026-05-08 08:34 42.43545 141.78115 29034 ft 371 kts 226°
2026-05-08 08:34 42.41789 141.75565 29456 ft 369 kts 226°
2026-05-08 08:35 42.40045 141.73031 29863 ft 366 kts 226°
2026-05-08 08:35 42.38314 141.70515 30194 ft 364 kts 226°
2026-05-08 08:35 42.36593 141.68013 30476 ft 364 kts 226°
2026-05-08 08:35 42.34866 141.65504 30738 ft 363 kts 226°
2026-05-08 08:36 42.33154 141.63018 31033 ft 362 kts 226°
2026-05-08 08:36 42.31442 141.60535 31315 ft 360 kts 226°
2026-05-08 08:36 42.29735 141.58061 31588 ft 359 kts 226°
2026-05-08 08:36 42.28607 141.56427 31767 ft 359 kts 226°
2026-05-08 08:37 42.26908 141.53968 32054 ft 357 kts 226°
2026-05-08 08:37 42.25220 141.51527 32335 ft 356 kts 225°
2026-05-08 08:37 42.23532 141.49088 32612 ft 355 kts 225°
2026-05-08 08:37 42.21850 141.46659 32894 ft 353 kts 225°
2026-05-08 08:38 42.19631 141.43459 33260 ft 352 kts 225°
2026-05-08 08:38 42.18507 141.41839 33444 ft 351 kts 225°
2026-05-08 08:38 42.16842 141.39441 33712 ft 350 kts 225°
2026-05-08 08:38 42.15181 141.37051 33937 ft 349 kts 225°
2026-05-08 08:39 42.13522 141.34666 34142 ft 348 kts 225°
2026-05-08 08:39 42.11864 141.32284 34325 ft 348 kts 225°
2026-05-08 08:39 42.10209 141.29908 34516 ft 349 kts 225°
2026-05-08 08:39 42.08548 141.27526 34685 ft 349 kts 225°
2026-05-08 08:40 42.06882 141.25139 34810 ft 350 kts 225°
2026-05-08 08:40 42.05230 141.22773 34899 ft 352 kts 225°
2026-05-08 08:40 42.01844 141.17930 35131 ft 353 kts 226°
2026-05-08 08:41 42.00160 141.15524 35301 ft 353 kts 226°
2026-05-08 08:41 41.98499 141.13153 35427 ft 353 kts 226°
2026-05-08 08:41 41.96813 141.10749 35553 ft 353 kts 226°
2026-05-08 08:41 41.95108 141.08320 35666 ft 353 kts 226°
2026-05-08 08:42 41.91751 141.03542 35687 ft 354 kts 226°
2026-05-08 08:42 41.88379 140.98750 35692 ft 353 kts 225°
2026-05-08 08:43 41.85018 140.93979 35694 ft 351 kts 225°
2026-05-08 08:43 41.81660 140.89224 35696 ft 351 kts 225°
2026-05-08 08:44 41.78201 140.84618 35686 ft 351 kts 220°
2026-05-08 08:44 41.74167 140.80918 35691 ft 354 kts 211°
2026-05-08 08:45 41.69800 140.77884 35692 ft 354 kts 211°
2026-05-08 08:45 41.65417 140.74873 35692 ft 354 kts 211°
2026-05-08 08:46 41.61043 140.71860 35692 ft 354 kts 211°
2026-05-08 08:46 41.56664 140.68840 35690 ft 354 kts 211°
2026-05-08 08:47 41.52286 140.65820 35685 ft 354 kts 211°
2026-05-08 08:47 41.47913 140.62808 35677 ft 354 kts 211°
2026-05-08 08:48 41.43533 140.59795 35683 ft 354 kts 211°
2026-05-08 08:48 41.39158 140.56791 35682 ft 354 kts 211°
2026-05-08 08:49 41.34776 140.53785 35680 ft 354 kts 211°
2026-05-08 08:49 41.30397 140.50787 35678 ft 354 kts 211°
2026-05-08 08:50 41.26009 140.47787 35684 ft 355 kts 211°
2026-05-08 08:50 41.21617 140.44788 35675 ft 355 kts 211°
2026-05-08 08:51 41.17231 140.41799 35657 ft 355 kts 211°
2026-05-08 08:51 41.12878 140.38833 35659 ft 352 kts 211°
2026-05-08 08:52 41.08513 140.35867 35660 ft 353 kts 211°
2026-05-08 08:52 41.04131 140.32894 35668 ft 354 kts 211°
2026-05-08 08:53 40.99740 140.29921 35666 ft 355 kts 211°
2026-05-08 08:53 40.95333 140.26940 35675 ft 356 kts 211°
2026-05-08 08:54 40.90922 140.23960 35666 ft 357 kts 211°
2026-05-08 08:54 40.86493 140.20973 35667 ft 357 kts 211°
2026-05-08 08:55 40.82065 140.17991 35674 ft 358 kts 211°
2026-05-08 08:55 40.77620 140.15002 35674 ft 358 kts 211°
2026-05-08 08:56 40.73174 140.12017 35673 ft 359 kts 211°
2026-05-08 08:56 40.68725 140.09034 35653 ft 358 kts 211°
2026-05-08 08:57 40.64300 140.06070 35701 ft 356 kts 211°
2026-05-08 08:57 40.62088 140.04590 35599 ft 357 kts 211°
2026-05-08 08:57 40.59882 140.03114 35648 ft 357 kts 211°
2026-05-08 08:58 40.55447 140.00155 35694 ft 357 kts 211°
2026-05-08 08:58 40.50992 139.97185 35680 ft 360 kts 211°
2026-05-08 08:59 40.46512 139.94205 35677 ft 361 kts 211°
2026-05-08 08:59 40.41782 139.91858 35680 ft 368 kts 201°
2026-05-08 09:00 40.36814 139.90196 35676 ft 368 kts 201°
2026-05-08 09:00 40.31862 139.88532 35679 ft 367 kts 201°
2026-05-08 09:01 40.26913 139.86858 35680 ft 367 kts 202°
2026-05-08 09:01 40.21975 139.85185 35686 ft 367 kts 202°
2026-05-08 09:02 40.17065 139.83524 35687 ft 367 kts 202°
2026-05-08 09:02 40.12129 139.81855 35691 ft 367 kts 202°
2026-05-08 09:03 40.07183 139.80186 35690 ft 367 kts 202°
2026-05-08 09:03 40.02243 139.78521 35689 ft 367 kts 202°
2026-05-08 09:04 39.97293 139.76861 35689 ft 367 kts 202°
2026-05-08 09:04 39.92341 139.75210 35685 ft 367 kts 202°
2026-05-08 09:05 39.87388 139.73560 35686 ft 369 kts 202°
2026-05-08 09:05 39.82421 139.71908 35692 ft 368 kts 202°
2026-05-08 09:06 39.77462 139.70260 35700 ft 368 kts 202°
2026-05-08 09:06 39.72501 139.68614 35694 ft 368 kts 202°
2026-05-08 09:07 39.67541 139.66970 35705 ft 368 kts 202°
2026-05-08 09:07 39.62579 139.65328 35706 ft 368 kts 202°
2026-05-08 09:08 39.57620 139.63689 35705 ft 368 kts 202°
2026-05-08 09:08 39.52652 139.62050 35708 ft 368 kts 202°
2026-05-08 09:09 39.47687 139.60414 35708 ft 369 kts 202°
2026-05-08 09:09 39.42712 139.58778 35705 ft 369 kts 202°
2026-05-08 09:10 39.37740 139.57145 35710 ft 369 kts 202°
2026-05-08 09:10 39.32759 139.55510 35713 ft 369 kts 202°
2026-05-08 09:11 39.27780 139.53880 35714 ft 370 kts 202°
2026-05-08 09:11 39.22790 139.52248 35720 ft 370 kts 202°
2026-05-08 09:12 39.17795 139.50617 35723 ft 370 kts 202°
2026-05-08 09:12 39.12804 139.48989 35722 ft 370 kts 202°
2026-05-08 09:13 39.07836 139.47372 35725 ft 371 kts 202°
2026-05-08 09:13 39.02805 139.45736 35730 ft 371 kts 202°
2026-05-08 09:14 38.97832 139.44122 35730 ft 371 kts 202°
2026-05-08 09:14 38.92826 139.42499 35732 ft 371 kts 202°
2026-05-08 09:15 38.87821 139.40879 35735 ft 371 kts 202°
2026-05-08 09:15 38.82808 139.39259 35735 ft 371 kts 203°
2026-05-08 09:16 38.77797 139.37641 35741 ft 372 kts 203°
2026-05-08 09:16 38.72775 139.36023 35746 ft 372 kts 203°
2026-05-08 09:17 38.67755 139.34407 35747 ft 372 kts 203°
2026-05-08 09:17 38.62727 139.32792 35747 ft 372 kts 203°
2026-05-08 09:18 38.57699 139.31178 35747 ft 372 kts 203°
2026-05-08 09:18 38.52677 139.29569 35752 ft 372 kts 203°
2026-05-08 09:19 38.47648 139.27960 35755 ft 372 kts 203°
2026-05-08 09:19 38.42620 139.26353 35752 ft 372 kts 203°
2026-05-08 09:20 38.37597 139.24751 35753 ft 372 kts 203°
2026-05-08 09:20 38.32568 139.23148 35757 ft 372 kts 203°
2026-05-08 09:21 38.27544 139.21550 35767 ft 373 kts 203°
2026-05-08 09:23 38.09932 139.15964 35774 ft 373 kts 203°
2026-05-08 09:23 38.04868 139.14362 35769 ft 373 kts 203°
2026-05-08 09:24 37.99866 139.12783 35767 ft 373 kts 203°
2026-05-08 09:24 37.94954 139.10872 35773 ft 364 kts 211°
2026-05-08 09:25 37.90507 139.07944 35767 ft 361 kts 215°
2026-05-08 09:25 37.86805 139.05403 35770 ft 361 kts 215°
2026-05-08 09:26 37.82374 139.02378 35776 ft 363 kts 214°
2026-05-08 09:26 37.77920 138.99352 35785 ft 364 kts 214°
2026-05-08 09:27 37.73456 138.96327 35791 ft 365 kts 214°
2026-05-08 09:27 37.69007 138.93317 35797 ft 365 kts 214°
2026-05-08 09:28 37.64498 138.90271 35807 ft 366 kts 215°
2026-05-08 09:28 37.60040 138.87262 35811 ft 366 kts 215°
2026-05-08 09:29 37.55550 138.84237 35808 ft 366 kts 215°
2026-05-08 09:29 37.51068 138.81220 35811 ft 365 kts 215°
2026-05-08 09:30 37.46581 138.78204 35813 ft 365 kts 215°
2026-05-08 09:30 37.42099 138.75197 35815 ft 365 kts 215°
2026-05-08 09:31 37.37611 138.72191 35820 ft 365 kts 215°
2026-05-08 09:31 37.33128 138.69192 35813 ft 365 kts 215°
2026-05-08 09:32 37.28638 138.66191 35819 ft 365 kts 215°
2026-05-08 09:32 37.24140 138.63188 35811 ft 366 kts 215°
2026-05-08 09:33 37.19646 138.60191 35814 ft 366 kts 215°
2026-05-08 09:33 37.15156 138.57202 35814 ft 366 kts 215°
2026-05-08 09:34 37.10659 138.54215 35809 ft 366 kts 215°
2026-05-08 09:34 37.06152 138.51231 35803 ft 367 kts 215°
2026-05-08 09:35 37.01643 138.48251 35824 ft 366 kts 215°
2026-05-08 09:35 36.97132 138.45271 35809 ft 367 kts 215°
2026-05-08 09:36 36.92642 138.42309 35793 ft 368 kts 215°
2026-05-08 09:36 36.88091 138.39309 35784 ft 368 kts 215°
2026-05-08 09:37 36.83559 138.36327 35784 ft 368 kts 215°
2026-05-08 09:37 36.79029 138.33347 35767 ft 368 kts 215°
2026-05-08 09:38 36.74531 138.30387 35774 ft 368 kts 215°
2026-05-08 09:38 36.69975 138.27391 35781 ft 369 kts 215°
2026-05-08 09:39 36.65456 138.24422 35775 ft 370 kts 215°
2026-05-08 09:39 36.60894 138.21430 35773 ft 371 kts 215°
2026-05-08 09:40 36.56326 138.18439 35765 ft 371 kts 215°
2026-05-08 09:40 36.51759 138.15451 35756 ft 372 kts 215°
2026-05-08 09:41 36.47186 138.12463 35722 ft 370 kts 215°
2026-05-08 09:41 36.42650 138.09508 35768 ft 368 kts 215°
2026-05-08 09:42 36.38103 138.06559 35758 ft 369 kts 215°
2026-05-08 09:42 36.33539 138.03599 35768 ft 371 kts 215°
2026-05-08 09:43 36.28957 138.00631 35790 ft 372 kts 215°
2026-05-08 09:43 36.24357 137.97656 35764 ft 373 kts 215°
2026-05-08 09:44 36.19755 137.94682 35765 ft 373 kts 215°
2026-05-08 09:44 36.15197 137.91659 35761 ft 369 kts 219°
2026-05-08 09:45 36.11018 137.88051 35753 ft 366 kts 221°
2026-05-08 09:45 36.06884 137.84421 35776 ft 364 kts 221°
2026-05-08 09:46 36.02757 137.80815 35595 ft 366 kts 221°
2026-05-08 09:46 36.00652 137.78978 35027 ft 372 kts 221°
2026-05-08 09:46 35.98546 137.77148 34447 ft 369 kts 221°
2026-05-08 09:46 35.96434 137.75315 33728 ft 372 kts 221°
2026-05-08 09:47 35.94328 137.73489 33180 ft 367 kts 222°
2026-05-08 09:47 35.92250 137.71689 32692 ft 362 kts 222°
2026-05-08 09:47 35.90197 137.69913 32186 ft 358 kts 222°
2026-05-08 09:47 35.88173 137.68159 31662 ft 355 kts 223°
2026-05-08 09:48 35.86153 137.66414 31148 ft 353 kts 223°
2026-05-08 09:48 35.84155 137.64691 30706 ft 348 kts 223°
2026-05-08 09:48 35.82205 137.63009 30255 ft 345 kts 223°
2026-05-08 09:48 35.80230 137.61305 29773 ft 340 kts 223°
2026-05-08 09:49 35.78331 137.59668 29269 ft 335 kts 224°
2026-05-08 09:49 35.76437 137.58033 28821 ft 330 kts 223°
2026-05-08 09:49 35.74570 137.56424 28370 ft 325 kts 223°
2026-05-08 09:49 35.72734 137.54845 27928 ft 320 kts 223°
2026-05-08 09:50 35.70919 137.53284 27489 ft 317 kts 223°
2026-05-08 09:50 35.69113 137.51727 26881 ft 318 kts 224°
2026-05-08 09:50 35.67312 137.50174 26439 ft 315 kts 223°
2026-05-08 09:50 35.65522 137.48634 25995 ft 313 kts 223°
2026-05-08 09:51 35.63744 137.47103 25549 ft 312 kts 223°
2026-05-08 09:51 35.61969 137.45575 25118 ft 310 kts 223°
2026-05-08 09:51 35.60203 137.44057 24715 ft 309 kts 223°
2026-05-08 09:51 35.58444 137.42546 24283 ft 308 kts 223°
2026-05-08 09:52 35.56699 137.41048 23882 ft 305 kts 223°
2026-05-08 09:52 35.54944 137.39537 23187 ft 316 kts 223°
2026-05-08 09:52 35.53128 137.37974 22622 ft 320 kts 223°
2026-05-08 09:52 35.51307 137.36415 22165 ft 317 kts 222°
2026-05-08 09:53 35.49517 137.34888 21783 ft 310 kts 222°
2026-05-08 09:53 35.47756 137.33382 21344 ft 308 kts 223°
2026-05-08 09:53 35.46010 137.31886 20930 ft 305 kts 222°
2026-05-08 09:53 35.44278 137.30402 20522 ft 302 kts 222°
2026-05-08 09:54 35.42559 137.28932 20108 ft 300 kts 222°
2026-05-08 09:54 35.40857 137.27478 19719 ft 298 kts 222°
2026-05-08 09:54 35.39071 137.26161 19299 ft 304 kts 212°
2026-05-08 09:54 35.37011 137.25382 18755 ft 319 kts 200°
2026-05-08 09:55 35.34811 137.24953 18291 ft 321 kts 198°
2026-05-08 09:55 35.32597 137.24579 17852 ft 321 kts 197°
2026-05-08 09:55 35.30398 137.24218 17416 ft 318 kts 197°
2026-05-08 09:55 35.28208 137.23853 17006 ft 315 kts 197°
2026-05-08 09:56 35.26051 137.23486 16611 ft 312 kts 197°
2026-05-08 09:56 35.23906 137.23115 16214 ft 310 kts 197°
2026-05-08 09:56 35.21775 137.22742 15823 ft 308 kts 196°
2026-05-08 09:56 35.19658 137.22368 15440 ft 306 kts 197°
2026-05-08 09:57 35.15487 137.21629 14686 ft 303 kts 197°
2026-05-08 09:57 35.13403 137.21258 14315 ft 302 kts 197°
2026-05-08 09:57 35.11326 137.20889 13937 ft 301 kts 196°
2026-05-08 09:58 35.09259 137.20521 13549 ft 301 kts 196°
2026-05-08 09:58 35.07192 137.20154 13126 ft 300 kts 196°
2026-05-08 09:58 35.05134 137.19789 12728 ft 298 kts 196°
2026-05-08 09:58 35.03090 137.19426 12348 ft 296 kts 195°
2026-05-08 09:59 35.01056 137.19066 11976 ft 295 kts 195°
2026-05-08 09:59 34.99031 137.18707 11604 ft 293 kts 195°
2026-05-08 09:59 34.97097 137.18364 11249 ft 292 kts 195°
2026-05-08 09:59 34.95095 137.18009 10881 ft 291 kts 195°
2026-05-08 10:00 34.93096 137.17655 10506 ft 290 kts 194°
2026-05-08 10:00 34.91124 137.17307 10351 ft 281 kts 194°
2026-05-08 10:00 34.89213 137.16972 10212 ft 273 kts 195°
2026-05-08 10:00 34.87362 137.16647 10088 ft 265 kts 195°
2026-05-08 10:01 34.85567 137.16332 9974 ft 257 kts 195°
2026-05-08 10:01 34.83852 137.15942 9786 ft 247 kts 203°
2026-05-08 10:01 34.82250 137.15194 9433 ft 245 kts 208°
2026-05-08 10:01 34.80695 137.14363 9143 ft 244 kts 209°
2026-05-08 10:02 34.79165 137.13540 8863 ft 243 kts 209°
2026-05-08 10:02 34.77598 137.12708 8576 ft 243 kts 209°
2026-05-08 10:02 34.76068 137.11908 8311 ft 241 kts 209°
2026-05-08 10:02 34.74532 137.11114 8043 ft 240 kts 209°
2026-05-08 10:03 34.72999 137.10328 7767 ft 238 kts 209°
2026-05-08 10:03 34.71475 137.09547 7526 ft 237 kts 209°
2026-05-08 10:03 34.69958 137.08772 7264 ft 236 kts 209°
2026-05-08 10:03 34.68560 137.07816 6984 ft 228 kts 227°
2026-05-08 10:04 34.67521 137.06403 6754 ft 223 kts 236°
2026-05-08 10:04 34.66573 137.04898 6502 ft 226 kts 237°
2026-05-08 10:04 34.65620 137.03363 6383 ft 227 kts 237°
2026-05-08 10:04 34.64643 137.01802 6174 ft 236 kts 237°
2026-05-08 10:05 34.63633 137.00201 5911 ft 241 kts 237°
2026-05-08 10:05 34.62614 136.98599 5643 ft 239 kts 237°
2026-05-08 10:05 34.61595 136.97000 5368 ft 238 kts 237°
2026-05-08 10:05 34.60601 136.95407 5105 ft 235 kts 242°
2026-05-08 10:06 34.60024 136.93593 4837 ft 229 kts 261°
2026-05-08 10:06 34.59720 136.91707 4570 ft 227 kts 261°
2026-05-08 10:06 34.59596 136.89826 4274 ft 224 kts 283°
2026-05-08 10:06 34.60398 136.88251 4037 ft 225 kts 318°
2026-05-08 10:07 34.61747 136.87252 3845 ft 231 kts 328°
2026-05-08 10:07 34.63173 136.86441 3851 ft 219 kts 334°
2026-05-08 10:07 34.64577 136.85851 3861 ft 210 kts 337°
2026-05-08 10:07 34.65990 136.85374 3703 ft 214 kts 341°
2026-05-08 10:08 34.67474 136.84942 3654 ft 225 kts 341°
2026-05-08 10:08 34.68987 136.84521 3456 ft 226 kts 344°
2026-05-08 10:08 34.70513 136.84204 3177 ft 218 kts 346°
2026-05-08 10:08 34.71968 136.83864 2912 ft 207 kts 344°
2026-05-08 10:09 34.73324 136.83537 2609 ft 190 kts 345°
2026-05-08 10:09 34.74566 136.83235 2315 ft 175 kts 346°
2026-05-08 10:09 34.75724 136.82965 2036 ft 161 kts 345°
2026-05-08 10:09 34.76757 136.82713 1795 ft 142 kts 345°
2026-05-08 10:10 34.77649 136.82501 1569 ft 126 kts 344°
2026-05-08 10:10 34.78503 136.82296 1352 ft 127 kts 345°
2026-05-08 10:10 34.79399 136.82084 1160 ft 134 kts 346°
2026-05-08 10:10 34.80319 136.81864 996 ft 136 kts 347°
2026-05-08 10:11 34.81261 136.81638 773 ft 139 kts 346°
2026-05-08 10:11 34.82202 136.81415 546 ft 135 kts 345°
2026-05-08 10:11 34.83099 136.81203 325 ft 129 kts 343°
2026-05-08 10:11 34.83989 136.80986 108 ft 131 kts 344°
2026-05-08 10:12 34.84859 136.80781 27 ft 118 kts 345°
2026-05-08 10:12 34.85541 136.80608 24 ft 82 kts 349°
2026-05-08 10:12 34.85982 136.80503 24 ft 47 kts 350°
2026-05-08 10:12 34.86225 136.80527 28 ft 31 kts 18°
2026-05-08 10:13 34.86326 136.80641 27 ft 13 kts 111°
2026-05-08 10:13 34.86247 136.80685 27 ft 13 kts 169°
2026-05-08 10:13 34.86161 136.80706 27 ft 13 kts 169°
2026-05-08 10:13 34.86076 136.80726 27 ft 12 kts 169°
2026-05-08 10:14 34.86022 136.80739 27 ft 12 kts 168°
2026-05-08 10:14 34.85941 136.80759 27 ft 12 kts 168°
2026-05-08 10:14 34.85836 136.80783 27 ft 11 kts 169°
2026-05-08 10:14 34.85784 136.80794 27 ft 12 kts 168°
2026-05-08 10:15 34.85695 136.80817 27 ft 14 kts 168°
2026-05-08 10:15 34.85592 136.80845 27 ft 15 kts 155°
2026-05-08 10:15 34.85571 136.80916 27 ft 8 kts 75°
2026-05-08 10:15 34.85616 136.80948 27 ft 9 kts
2026-05-08 10:16 34.85676 136.80937 27 ft 9 kts 344°
2026-05-08 10:16 34.85742 136.80918 27 ft 10 kts 348°
2026-05-08 10:16 34.85812 136.80901 27 ft 10 kts 348°
2026-05-08 10:16 34.85881 136.80884 27 ft 10 kts 348°
2026-05-08 10:17 34.85948 136.80873 27 ft 10 kts
2026-05-08 10:17 34.85985 136.80934 27 ft 9 kts 77°
2026-05-08 10:17 34.85998 136.81012 27 ft 9 kts 78°
2026-05-08 10:17 34.85963 136.81046 27 ft 7 kts 171°
2026-05-08 10:18 34.85923 136.81052 27 ft 2 kts 172°
2026-05-08 10:18 34.85922 136.81053 27 ft 0 kts 172°